[Date Prev][Date Next][Thread Prev][Thread Next] - [Date Index][Thread Index][Author Index]
2 Line ISS Keps 4-11
- Subject: [sarex] 2 Line ISS Keps 4-11
- From: "Dave Larsen PhD" <doc@xxxxxxxxxxx>
- Date: Sun, 11 Apr 2004 06:20:29 -0700
ISS
1 25544U 98067A 04102.45703111 .00019679 00000-0 17726-3 0 5476
2 25544 51.6286 305.8306 0010737 20.0346 62.2821 15.68137385307848
----
Via the sarex mailing list at AMSAT.ORG courtesy of AMSAT-NA.
To unsubscribe, send "unsubscribe sarex" to Majordomo@amsat.org
AMSAT Home